Time,TemperatureF,DewpointF,PressureIn,WindDirection,WindDirectionDegrees,WindSpeedMPH,WindSpeedGustMPH,Humidity,HourlyPrecipIn,Conditions,Clouds,dailyrainin,SolarRadiationWatts/m^2,SoftwareType,DateUTC
2013-02-03 00:05:00,49.3,47.0,30.18,East,89,0.0,2.0,93,0.00,,,0.00,0,weatherlink.com 1.10,2013-02-03 05:05:00,
2013-02-03 00:20:00,49.9,49.0,30.18,NNE,19,0.0,4.0,95,0.00,,,0.00,0,weatherlink.com 1.10,2013-02-03 05:20:00,
2013-02-03 00:35:00,50.4,49.0,30.18,North,5,0.0,3.0,95,0.00,,,0.00,0,weatherlink.com 1.10,2013-02-03 05:35:00,
2013-02-03 00:50:00,51.0,49.0,30.18,North,360,1.0,3.0,94,0.00,,,0.00,0,weatherlink.com 1.10,2013-02-03 05:50:00,
2013-02-03 01:05:00,51.7,50.0,30.17,North,5,1.0,3.0,93,0.00,,,0.00,0,weatherlink.com 1.10,2013-02-03 06:05:00,
2013-02-03 01:20:00,52.1,50.0,30.17,NNE,14,2.0,4.0,91,0.00,,,0.00,0,weatherlink.com 1.10,2013-02-03 06:20:00,
2013-02-03 01:35:00,52.0,49.0,30.17,North,11,2.0,3.0,89,0.00,,,0.00,0,weatherlink.com 1.10,2013-02-03 06:35:00,
2013-02-03 01:50:00,51.6,49.0,30.16,North,11,0.0,2.0,89,0.00,,,0.00,0,weatherlink.com 1.10,2013-02-03 06:50:00,
2013-02-03 02:05:00,50.9,48.0,30.16,North,11,0.0,0.0,90,0.00,,,0.00,0,weatherlink.com 1.10,2013-02-03 07:05:00,
2013-02-03 02:20:00,50.0,48.0,30.15,North,11,0.0,0.0,91,0.00,,,0.00,0,weatherlink.com 1.10,2013-02-03 07:20:00,
2013-02-03 02:35:00,49.4,47.0,30.15,North,11,0.0,0.0,91,0.00,,,0.00,0,weatherlink.com 1.10,2013-02-03 07:35:00,
2013-02-03 02:50:00,48.8,47.0,30.14,North,11,0.0,0.0,92,0.00,,,0.00,0,weatherlink.com 1.10,2013-02-03 07:50:00,
2013-02-03 03:05:00,48.2,46.0,30.14,North,11,0.0,0.0,92,0.00,,,0.00,0,weatherlink.com 1.10,2013-02-03 08:05:00,
2013-02-03 03:20:00,47.7,46.0,30.14,North,11,0.0,0.0,93,0.00,,,0.00,0,weatherlink.com 1.10,2013-02-03 08:20:00,
2013-02-03 03:35:00,47.2,45.0,30.14,North,11,0.0,1.0,93,0.00,,,0.00,0,weatherlink.com 1.10,2013-02-03 08:35:00,
2013-02-03 03:50:00,46.7,45.0,30.14,North,11,0.0,0.0,93,0.00,,,0.00,0,weatherlink.com 1.10,2013-02-03 08:50:00,
2013-02-03 04:05:00,46.4,45.0,30.14,North,11,0.0,0.0,94,0.00,,,0.00,0,weatherlink.com 1.10,2013-02-03 09:05:00,
2013-02-03 04:20:00,45.9,44.0,30.14,North,11,0.0,0.0,94,0.00,,,0.00,0,weatherlink.com 1.10,2013-02-03 09:20:00,
2013-02-03 04:36:00,45.5,44.0,30.14,North,11,0.0,0.0,94,0.00,,,0.00,0,weatherlink.com 1.10,2013-02-03 09:36:00,
2013-02-03 04:50:00,45.4,44.0,30.14,North,11,0.0,0.0,95,0.00,,,0.00,0,weatherlink.com 1.10,2013-02-03 09:50:00,
2013-02-03 05:05:00,45.2,44.0,30.14,North,11,0.0,0.0,95,0.00,,,0.00,0,weatherlink.com 1.10,2013-02-03 10:05:00,
2013-02-03 05:20:00,44.9,44.0,30.15,North,11,0.0,0.0,95,0.00,,,0.00,0,weatherlink.com 1.10,2013-02-03 10:20:00,
2013-02-03 05:35:00,44.5,43.0,30.15,North,11,0.0,0.0,95,0.00,,,0.00,0,weatherlink.com 1.10,2013-02-03 10:35:00,
2013-02-03 05:50:00,44.3,43.0,30.16,North,11,0.0,0.0,95,0.00,,,0.00,0,weatherlink.com 1.10,2013-02-03 10:50:00,
2013-02-03 06:05:00,44.1,43.0,30.16,North,11,0.0,0.0,95,0.00,,,0.00,0,weatherlink.com 1.10,2013-02-03 11:05:00,
2013-02-03 06:20:00,43.7,42.0,30.17,North,11,0.0,0.0,95,0.00,,,0.00,0,weatherlink.com 1.10,2013-02-03 11:20:00,
2013-02-03 06:35:00,43.4,42.0,30.17,North,11,0.0,0.0,95,0.00,,,0.00,0,weatherlink.com 1.10,2013-02-03 11:35:00,
2013-02-03 06:50:00,43.4,42.0,30.18,North,11,0.0,0.0,96,0.00,,,0.00,0,weatherlink.com 1.10,2013-02-03 11:50:00,
2013-02-03 07:05:00,43.3,42.0,30.19,North,11,1.0,2.0,96,0.00,,,0.00,0,weatherlink.com 1.10,2013-02-03 12:05:00,
2013-02-03 07:21:00,44.1,43.0,30.20,North,360,1.0,5.0,96,0.00,,,0.00,11,weatherlink.com 1.10,2013-02-03 12:21:00,
2013-02-03 07:36:00,45.9,45.0,30.20,North,355,6.0,6.0,97,0.00,,,0.00,16,weatherlink.com 1.10,2013-02-03 12:36:00,
2013-02-03 07:51:00,46.5,45.0,30.20,North,360,4.0,6.0,93,0.00,,,0.00,44,weatherlink.com 1.10,2013-02-03 12:51:00,
2013-02-03 08:06:00,47.3,45.0,30.21,NW,317,5.0,8.0,90,0.00,,,0.00,56,weatherlink.com 1.10,2013-02-03 13:06:00,
2013-02-03 08:21:00,47.9,44.0,30.22,North,355,4.0,8.0,86,0.00,,,0.00,58,weatherlink.com 1.10,2013-02-03 13:21:00,
2013-02-03 08:36:00,48.9,43.0,30.23,North,11,5.0,10.0,81,0.00,,,0.00,70,weatherlink.com 1.10,2013-02-03 13:36:00,
2013-02-03 08:51:00,50.1,43.0,30.23,NNW,345,3.0,7.0,77,0.00,,,0.00,88,weatherlink.com 1.10,2013-02-03 13:51:00,
2013-02-03 09:06:00,51.2,44.0,30.23,North,351,5.0,6.0,76,0.00,,,0.00,65,weatherlink.com 1.10,2013-02-03 14:06:00,
2013-02-03 09:21:00,52.7,44.0,30.23,North,360,2.0,5.0,73,0.00,,,0.00,339,weatherlink.com 1.10,2013-02-03 14:21:00,
2013-02-03 09:36:00,56.2,43.0,30.23,NNW,342,3.0,10.0,61,0.00,,,0.00,475,weatherlink.com 1.10,2013-02-03 14:36:00,
2013-02-03 09:51:00,58.6,41.0,30.23,North,9,4.0,8.0,53,0.00,,,0.00,475,weatherlink.com 1.10,2013-02-03 14:51:00,
2013-02-03 10:06:00,61.0,40.0,30.23,NE,51,2.0,9.0,47,0.00,,,0.00,457,weatherlink.com 1.10,2013-02-03 15:06:00,
2013-02-03 10:21:00,62.4,41.0,30.22,North,9,6.0,10.0,45,0.00,,,0.00,513,weatherlink.com 1.10,2013-02-03 15:21:00,
2013-02-03 10:36:00,64.2,42.0,30.22,North,10,4.0,9.0,45,0.00,,,0.00,724,weatherlink.com 1.10,2013-02-03 15:36:00,
2013-02-03 10:51:00,66.4,44.0,30.21,ENE,62,1.0,10.0,44,0.00,,,0.00,673,weatherlink.com 1.10,2013-02-03 15:51:00,
2013-02-03 11:06:00,67.0,44.0,30.21,NNW,346,5.0,7.0,43,0.00,,,0.00,631,weatherlink.com 1.10,2013-02-03 16:06:00,
2013-02-03 11:21:00,68.1,45.0,30.20,NNW,343,6.0,14.0,43,0.00,,,0.00,638,weatherlink.com 1.10,2013-02-03 16:21:00,
2013-02-03 11:36:00,68.5,46.0,30.20,NNE,21,3.0,11.0,44,0.00,,,0.00,631,weatherlink.com 1.10,2013-02-03 16:36:00,
2013-02-03 11:51:00,68.3,45.0,30.19,North,360,5.0,11.0,44,0.00,,,0.00,735,weatherlink.com 1.10,2013-02-03 16:51:00,
2013-02-03 12:06:00,69.9,45.0,30.18,North,350,5.0,12.0,41,0.00,,,0.00,543,weatherlink.com 1.10,2013-02-03 17:06:00,
2013-02-03 12:22:00,70.7,46.0,30.18,NNE,19,4.0,12.0,42,0.00,,,0.00,759,weatherlink.com 1.10,2013-02-03 17:22:00,
2013-02-03 12:37:00,70.9,48.0,30.17,North,360,2.0,13.0,44,0.00,,,0.00,728,weatherlink.com 1.10,2013-02-03 17:37:00,
2013-02-03 12:52:00,70.9,48.0,30.16,ENE,75,8.0,12.0,44,0.00,,,0.00,768,weatherlink.com 1.10,2013-02-03 17:52:00,
2013-02-03 13:07:00,71.0,48.0,30.16,NNW,332,6.0,15.0,44,0.00,,,0.00,737,weatherlink.com 1.10,2013-02-03 18:07:00,
2013-02-03 13:22:00,71.3,48.0,30.14,WNW,298,2.0,11.0,44,0.00,,,0.00,751,weatherlink.com 1.10,2013-02-03 18:22:00,
2013-02-03 13:37:00,72.1,50.0,30.14,NW,317,2.0,10.0,45,0.00,,,0.00,737,weatherlink.com 1.10,2013-02-03 18:37:00,
2013-02-03 13:52:00,72.4,49.0,30.13,North,355,7.0,10.0,43,0.00,,,0.00,712,weatherlink.com 1.10,2013-02-03 18:52:00,
2013-02-03 14:07:00,71.8,49.0,30.12,North,11,7.0,11.0,45,0.00,,,0.00,650,weatherlink.com 1.10,2013-02-03 19:07:00,
2013-02-03 14:22:00,72.3,49.0,30.12,North,355,1.0,13.0,44,0.00,,,0.00,615,weatherlink.com 1.10,2013-02-03 19:22:00,
2013-02-03 14:37:00,72.1,48.0,30.11,SSW,208,2.0,13.0,42,0.00,,,0.00,629,weatherlink.com 1.10,2013-02-03 19:37:00,
2013-02-03 14:52:00,72.0,48.0,30.11,South,184,2.0,9.0,43,0.00,,,0.00,594,weatherlink.com 1.10,2013-02-03 19:52:00,
2013-02-03 15:07:00,71.9,47.0,30.10,NNE,30,2.0,10.0,42,0.00,,,0.00,72,weatherlink.com 1.10,2013-02-03 20:07:00,
2013-02-03 15:22:00,71.9,48.0,30.10,NW,325,4.0,11.0,43,0.00,,,0.00,72,weatherlink.com 1.10,2013-02-03 20:22:00,
2013-02-03 15:37:00,72.3,48.0,30.11,North,355,5.0,14.0,43,0.00,,,0.00,127,weatherlink.com 1.10,2013-02-03 20:37:00,
2013-02-03 15:52:00,71.6,49.0,30.10,WNW,290,2.0,10.0,45,0.00,,,0.00,63,weatherlink.com 1.10,2013-02-03 20:52:00,
2013-02-03 16:07:00,71.4,49.0,30.10,North,355,2.0,11.0,45,0.00,,,0.00,46,weatherlink.com 1.10,2013-02-03 21:07:00,
2013-02-03 16:22:00,71.2,49.0,30.10,NNE,21,3.0,11.0,45,0.00,,,0.00,51,weatherlink.com 1.10,2013-02-03 21:22:00,
2013-02-03 16:37:00,70.5,48.0,30.10,NNE,15,3.0,7.0,45,0.00,,,0.00,47,weatherlink.com 1.10,2013-02-03 21:37:00,
2013-02-03 16:52:00,69.4,48.0,30.10,WSW,258,1.0,6.0,47,0.00,,,0.00,42,weatherlink.com 1.10,2013-02-03 21:52:00,
2013-02-03 17:07:00,68.5,49.0,30.10,SW,226,1.0,5.0,50,0.00,,,0.00,35,weatherlink.com 1.10,2013-02-03 22:07:00,
2013-02-03 17:22:00,67.8,50.0,30.10,WNW,296,0.0,2.0,53,0.00,,,0.00,26,weatherlink.com 1.10,2013-02-03 22:22:00,
2013-02-03 17:37:00,66.9,51.0,30.10,NNW,345,0.0,0.0,57,0.00,,,0.00,16,weatherlink.com 1.10,2013-02-03 22:37:00,
2013-02-03 17:52:00,65.4,51.0,30.10,NNW,345,0.0,0.0,59,0.00,,,0.00,9,weatherlink.com 1.10,2013-02-03 22:52:00,
2013-02-03 18:07:00,63.5,51.0,30.09,NNW,345,0.0,0.0,65,0.00,,,0.00,0,weatherlink.com 1.10,2013-02-03 23:07:00,
2013-02-03 18:22:00,61.5,50.0,30.10,NNW,345,0.0,0.0,67,0.00,,,0.00,0,weatherlink.com 1.10,2013-02-03 23:22:00,
2013-02-03 18:37:00,59.7,51.0,30.10,NNW,345,0.0,0.0,72,0.00,,,0.00,0,weatherlink.com 1.10,2013-02-03 23:37:00,
2013-02-03 18:52:00,58.2,50.0,30.10,NNW,345,0.0,0.0,74,0.00,,,0.00,0,weatherlink.com 1.10,2013-02-03 23:52:00,
2013-02-03 19:07:00,56.8,50.0,30.11,NNW,345,0.0,0.0,77,0.00,,,0.00,0,weatherlink.com 1.10,2013-02-04 00:07:00,
2013-02-03 19:22:00,55.7,49.0,30.11,NNW,345,1.0,2.0,79,0.00,,,0.00,0,weatherlink.com 1.10,2013-02-04 00:22:00,
2013-02-03 19:37:00,54.6,49.0,30.12,NNW,345,0.0,1.0,81,0.00,,,0.00,0,weatherlink.com 1.10,2013-02-04 00:37:00,
2013-02-03 19:52:00,53.7,49.0,30.12,NNW,345,0.0,0.0,83,0.00,,,0.00,0,weatherlink.com 1.10,2013-02-04 00:52:00,
2013-02-03 20:07:00,52.9,49.0,30.12,NNW,345,0.0,0.0,85,0.00,,,0.00,0,weatherlink.com 1.10,2013-02-04 01:07:00,
2013-02-03 20:22:00,52.2,49.0,30.12,NNW,345,0.0,1.0,87,0.00,,,0.00,0,weatherlink.com 1.10,2013-02-04 01:22:00,
2013-02-03 20:37:00,51.8,48.0,30.13,NNW,345,0.0,0.0,87,0.00,,,0.00,0,weatherlink.com 1.10,2013-02-04 01:37:00,
2013-02-03 20:52:00,51.3,48.0,30.13,NNW,345,0.0,0.0,88,0.00,,,0.00,0,weatherlink.com 1.10,2013-02-04 01:52:00,
2013-02-03 21:07:00,50.8,47.0,30.13,NNW,345,0.0,0.0,88,0.00,,,0.00,0,weatherlink.com 1.10,2013-02-04 02:07:00,
2013-02-03 21:22:00,50.3,47.0,30.13,NNW,345,0.0,0.0,88,0.00,,,0.00,0,weatherlink.com 1.10,2013-02-04 02:22:00,
2013-02-03 21:37:00,50.0,46.0,30.14,NNW,345,0.0,1.0,87,0.00,,,0.00,0,weatherlink.com 1.10,2013-02-04 02:37:00,
2013-02-03 21:52:00,50.5,46.0,30.14,NNW,340,0.0,2.0,83,0.00,,,0.00,0,weatherlink.com 1.10,2013-02-04 02:52:00,
2013-02-03 22:07:00,50.9,46.0,30.14,NW,324,0.0,0.0,82,0.00,,,0.00,0,weatherlink.com 1.10,2013-02-04 03:07:00,
2013-02-03 22:22:00,50.3,45.0,30.14,NW,324,0.0,1.0,83,0.00,,,0.00,0,weatherlink.com 1.10,2013-02-04 03:22:00,
2013-02-03 22:37:00,49.4,45.0,30.14,NW,324,0.0,0.0,84,0.00,,,0.00,0,weatherlink.com 1.10,2013-02-04 03:37:00,
2013-02-03 22:52:00,48.7,45.0,30.14,NW,324,0.0,0.0,86,0.00,,,0.00,0,weatherlink.com 1.10,2013-02-04 03:52:00,
2013-02-03 23:07:00,48.2,44.0,30.15,NW,324,0.0,1.0,86,0.00,,,0.00,0,weatherlink.com 1.10,2013-02-04 04:07:00,
2013-02-03 23:22:00,47.6,44.0,30.15,NW,324,0.0,1.0,86,0.00,,,0.00,0,weatherlink.com 1.10,2013-02-04 04:22:00,
2013-02-03 23:37:00,47.5,43.0,30.15,NW,324,0.0,1.0,85,0.00,,,0.00,0,weatherlink.com 1.10,2013-02-04 04:37:00,
2013-02-03 23:52:00,47.6,43.0,30.15,North,355,0.0,2.0,84,0.00,,,0.00,0,weatherlink.com 1.10,2013-02-04 04:52:00,